| time (UTC) | temp F | wind direction | speed MPH | gust MPH | rain 1hr in | rain 24hr in | rain mn in | humidity % | barometer mb |
| 20260903173734 | 82 | 146 | 2.0 | 8.0 | 0.00 | 0.00 | 0.00 | 58 | 1010.9 |
| 20260903173227 | 82 | 0 | 1.0 | 6.0 | 0.00 | 0.00 | 0.00 | 62 | 1010.9 |
| 20260903172721 | 82 | 187 | 2.0 | 9.0 | 0.00 | 0.00 | 0.00 | 59 | 1010.9 |
| 20260903172216 | 81 | 140 | 1.0 | 9.0 | 0.00 | 0.00 | 0.00 | 61 | 1010.9 |
| 20260903171709 | 81 | 299 | 1.0 | 7.0 | 0.00 | 0.00 | 0.00 | 66 | 1010.9 |
| 20260903170152 | 81 | 192 | 2.0 | 10.0 | 0.00 | 0.00 | 0.00 | 63 | 1011.0 |
| 20260903165645 | 81 | 337 | 2.0 | 10.0 | 0.00 | 0.00 | 0.00 | 62 | 1011.1 |
| 20260903165140 | 81 | 0 | 3.0 | 11.0 | 0.00 | 0.00 | 0.00 | 63 | 1011.1 |
| 20260903164127 | 80 | 304 | 2.0 | 11.0 | 0.00 | 0.00 | 0.00 | 66 | 1011.1 |
| 20260903163621 | 80 | 186 | 1.0 | 8.0 | 0.00 | 0.00 | 0.00 | 68 | 1011.1 |
| 20260903163117 | 80 | 5 | 1.0 | 8.0 | 0.00 | 0.00 | 0.00 | 69 | 1011.2 |
| 20260903162609 | 80 | 355 | 2.0 | 8.0 | 0.00 | 0.00 | 0.00 | 67 | 1011.3 |
| 20260903162103 | 80 | 184 | 2.0 | 8.0 | 0.00 | 0.00 | 0.00 | 69 | 1011.2 |
| 20260903161557 | 80 | 340 | 1.0 | 6.0 | 0.00 | 0.00 | 0.00 | 67 | 1011.2 |
| 20260903161051 | 80 | 324 | 1.0 | 5.0 | 0.00 | 0.00 | 0.00 | 72 | 1011.3 |
| 20260903160545 | 79 | 5 | 1.0 | 8.0 | 0.00 | 0.00 | 0.00 | 73 | 1011.3 |
| 20260903160040 | 78 | 220 | 2.0 | 9.0 | 0.00 | 0.00 | 0.00 | 72 | 1011.3 |
| 20260903155533 | 78 | 338 | 3.0 | 11.0 | 0.00 | 0.00 | 0.00 | 70 | 1011.5 |
| 20260903155027 | 78 | 216 | 2.0 | 11.0 | 0.00 | 0.00 | 0.00 | 69 | 1011.5 |
| 20260903154521 | 78 | 300 | 1.0 | 7.0 | 0.00 | 0.00 | 0.00 | 76 | 1011.5 |
| 20260903153509 | 76 | 126 | 3.0 | 8.0 | 0.00 | 0.00 | 0.00 | 82 | 1011.6 |
| 20260903153004 | 75 | 338 | 4.0 | 8.0 | 0.00 | 0.00 | 0.00 | 84 | 1011.6 |
| 20260903151953 | 74 | 184 | 6.0 | 12.0 | 0.00 | 0.00 | 0.00 | 88 | 1011.6 |
| 20260903151445 | 74 | 190 | 6.0 | 12.0 | 0.00 | 0.00 | 0.00 | 88 | 1011.6 |
| 20260903150939 | 74 | 0 | 7.0 | 12.0 | 0.00 | 0.00 | 0.00 | 88 | 1011.6 |
| 20260903150436 | 74 | 158 | 7.0 | 12.0 | 0.00 | 0.00 | 0.00 | 88 | 1011.6 |
| 20260903145927 | 74 | 186 | 7.0 | 11.0 | 0.00 | 0.00 | 0.00 | 88 | 1011.6 |
| 20260903145421 | 74 | 180 | 6.0 | 10.0 | 0.00 | 0.00 | 0.00 | 88 | 1011.7 |
| 20260903144915 | 74 | 161 | 6.0 | 11.0 | 0.00 | 0.00 | 0.00 | 89 | 1011.8 |
| 20260903144409 | 74 | 144 | 6.0 | 11.0 | 0.00 | 0.00 | 0.00 | 88 | 1011.8 |
| 20260903143903 | 74 | 164 | 6.0 | 10.0 | 0.00 | 0.00 | 0.00 | 88 | 1011.7 |
| 20260903143358 | 73 | 153 | 7.0 | 11.0 | 0.00 | 0.00 | 0.00 | 88 | 1011.8 |
| 20260903142854 | 74 | 169 | 6.0 | 11.0 | 0.00 | 0.00 | 0.00 | 88 | 1011.7 |
| 20260903142353 | 74 | 155 | 4.0 | 9.0 | 0.00 | 0.00 | 0.00 | 88 | 1011.7 |
| 20260903141854 | 74 | 164 | 3.0 | 7.0 | 0.00 | 0.00 | 0.00 | 87 | 1011.8 |
| 20260903141353 | 73 | 166 | 3.0 | 7.0 | 0.00 | 0.00 | 0.00 | 87 | 1011.7 |
| 20260903140852 | 73 | 173 | 3.0 | 6.0 | 0.00 | 0.00 | 0.00 | 88 | 1011.7 |
| 20260903140351 | 73 | 194 | 2.0 | 6.0 | 0.00 | 0.00 | 0.00 | 89 | 1011.7 |
| 20260903135849 | 72 | 157 | 1.0 | 4.0 | 0.00 | 0.00 | 0.00 | 90 | 1011.8 |
| 20260903135349 | 72 | 205 | 0.0 | 4.0 | 0.00 | 0.00 | 0.00 | 91 | 1011.8 |
| 20260903134849 | 71 | 213 | 0.0 | 1.0 | 0.00 | 0.00 | 0.00 | 91 | 1011.8 |
| 20260903134350 | 71 | 355 | 0.0 | 1.0 | 0.00 | 0.00 | 0.00 | 92 | 1011.8 |
| 20260903133847 | 71 | 294 | 0.0 | 1.0 | 0.00 | 0.00 | 0.00 | 92 | 1011.7 |
| 20260903133345 | 71 | 226 | 1.0 | 7.0 | 0.00 | 0.00 | 0.00 | 93 | 1011.7 |
| 20260903132846 | 71 | 221 | 1.0 | 7.0 | 0.00 | 0.00 | 0.00 | 94 | 1011.8 |
| 20260903132346 | 71 | 170 | 1.0 | 5.0 | 0.00 | 0.00 | 0.00 | 94 | 1011.8 |
| 20260903131843 | 71 | 192 | 1.0 | 5.0 | 0.00 | 0.00 | 0.00 | 94 | 1011.8 |
| 20260903131343 | 71 | 216 | 1.0 | 5.0 | 0.00 | 0.00 | 0.00 | 95 | 1011.7 |
| 20260903130844 | 70 | 230 | 0.0 | 1.0 | 0.00 | 0.00 | 0.00 | 95 | 1011.8 |
| 20260903130341 | 70 | 24 | 0.0 | 4.0 | 0.00 | 0.00 | 0.00 | 95 | 1011.8 |
| 20260903125842 | 70 | 191 | 0.0 | 4.0 | 0.00 | 0.00 | 0.00 | 96 | 1011.8 |
| 20260903125337 | 70 | 218 | 0.0 | 1.0 | 0.00 | 0.00 | 0.00 | 95 | 1011.8 |
| 20260903124837 | 70 | 246 | 0.0 | 0.0 | 0.00 | 0.00 | 0.00 | 96 | 1011.7 |
| 20260903124335 | 70 | 236 | 0.0 | 0.0 | 0.00 | 0.00 | 0.00 | 96 | 1011.7 |
| 20260903123835 | 70 | 355 | 0.0 | 0.0 | 0.00 | 0.00 | 0.00 | 96 | 1011.6 |
| 20260903122833 | 70 | 207 | 0.0 | 1.0 | 0.00 | 0.00 | 0.00 | 96 | 1011.6 |
| 20260903122333 | 70 | 229 | 0.0 | 5.0 | 0.00 | 0.00 | 0.00 | 96 | 1011.6 |
| 20260903121832 | 70 | 230 | 0.0 | 5.0 | 0.00 | 0.00 | 0.00 | 96 | 1011.6 |
| 20260903121329 | 70 | 184 | 0.0 | 2.0 | 0.00 | 0.00 | 0.00 | 96 | 1011.5 |
| 20260903115829 | 70 | 210 | 1.0 | 6.0 | 0.00 | 0.00 | 0.00 | 96 | 1011.6 |
| 20260903115329 | 70 | 219 | 1.0 | 6.0 | 0.00 | 0.00 | 0.00 | 96 | 1011.6 |
| 20260903114830 | 69 | 221 | 0.0 | 5.0 | 0.00 | 0.00 | 0.00 | 96 | 1011.6 |
| 20260903114329 | 69 | 215 | 0.0 | 5.0 | 0.00 | 0.00 | 0.00 | 96 | 1011.6 |
| 20260903113325 | 69 | 178 | 0.0 | 0.0 | 0.00 | 0.00 | 0.00 | 96 | 1011.6 |
| 20260903112825 | 69 | 319 | 0.0 | 0.0 | 0.00 | 0.00 | 0.00 | 96 | 1011.6 |
| 20260903112326 | 0 | 0.0 | 0.0 | 0.00 | 0.00 | 0.00 | 1011.5 | ||
| 20260903111825 | 0 | 0.0 | 0.0 | 0.00 | 0.00 | 0.00 | 1011.5 | ||
| 20260903111322 | 0 | 0.0 | 0.0 | 0.00 | 0.00 | 0.00 | 1011.5 | ||
| 20260903110809 | 0 | 0.0 | 0.0 | 0.00 | 0.00 | 0.00 | 1011.5 | ||
| 20260903110222 | 0 | 0.0 | 0.0 | 0.00 | 0.00 | 0.00 | 1011.4 | ||
| 20260903105209 | 0 | 0.0 | 0.0 | 0.00 | 0.00 | 0.00 | 1011.3 | ||
| 20260903104617 | 0 | 0.0 | 0.0 | 0.00 | 0.00 | 0.00 | 1011.2 | ||
| 20260903104117 | 0 | 0.0 | 0.0 | 0.00 | 0.00 | 0.00 | 1011.1 | ||
| 20260903103617 | 0 | 0.0 | 0.0 | 0.00 | 0.00 | 0.00 | 1011.2 | ||
| 20260903103117 | 0 | 0.0 | 0.0 | 0.00 | 0.00 | 0.00 | 1011.2 | ||
| 20260903102525 | 0 | 0.0 | 0.0 | 0.00 | 0.00 | 0.00 | 1011.1 | ||
| 20260903102020 | 0 | 0.0 | 0.0 | 0.00 | 0.00 | 0.00 | 1011.1 | ||
| 20260903101505 | 0 | 0.0 | 0.0 | 0.00 | 0.00 | 0.00 | 1011.1 | ||
| 20260903100924 | 0 | 0.0 | 0.0 | 0.00 | 0.00 | 0.00 | 1011.1 | ||
| 20260903100425 | 0 | 0.0 | 0.0 | 0.00 | 0.00 | 0.00 | 1011.0 | ||
| 20260903095330 | 0 | 0.0 | 0.0 | 0.00 | 0.00 | 0.00 | 1011.0 | ||
| 20260903094820 | 0 | 0.0 | 0.0 | 0.00 | 0.00 | 0.00 | 1011.1 | ||
| 20260903094258 | 0 | 0.0 | 0.0 | 0.00 | 0.00 | 0.00 | 1011.0 | ||
| 20260903093719 | 0 | 0.0 | 0.0 | 0.00 | 0.00 | 0.00 | 1011.0 | ||
| 20260903093217 | 0 | 0.0 | 0.0 | 0.00 | 0.00 | 0.00 | 1010.9 | ||
| 20260903092628 | 0 | 0.0 | 0.0 | 0.00 | 0.00 | 0.00 | 1010.9 | ||
| 20260903092123 | 0 | 0.0 | 0.0 | 0.00 | 0.00 | 0.00 | 1010.7 | ||
| 20260903091026 | 0 | 0.0 | 0.0 | 0.00 | 0.00 | 0.00 | 1010.8 | ||
| 20260903090503 | 0 | 0.0 | 0.0 | 0.00 | 0.00 | 0.00 | 1010.8 | ||
| 20260903085919 | 0 | 0.0 | 0.0 | 0.00 | 0.00 | 0.00 | 1010.8 | ||
| 20260903085327 | 0 | 0.0 | 0.0 | 0.00 | 0.00 | 0.00 | 1010.8 | ||
| 20260903084823 | 0 | 0.0 | 0.0 | 0.00 | 0.00 | 0.00 | 1010.7 | ||
| 20260903084320 | 0 | 0.0 | 0.0 | 0.00 | 0.00 | 0.00 | 1010.7 | ||
| 20260903083732 | 0 | 0.0 | 0.0 | 0.00 | 0.00 | 0.00 | 1010.7 | ||
| 20260903082721 | 0 | 0.0 | 0.0 | 0.00 | 0.00 | 0.00 | 1010.7 | ||
| 20260903082221 | 0 | 0.0 | 0.0 | 0.00 | 0.00 | 0.00 | 1010.8 | ||
| 20260903081623 | 0 | 0.0 | 0.0 | 0.00 | 0.00 | 0.00 | 1010.9 | ||
| 20260903081119 | 0 | 0.0 | 0.0 | 0.00 | 0.00 | 0.00 | 1010.9 | ||
| 20260903080529 | 0 | 0.0 | 0.0 | 0.00 | 0.00 | 0.00 | 1010.9 | ||
| 20260903075522 | 0 | 0.0 | 0.0 | 0.00 | 0.00 | 0.00 | 1010.9 | ||
| 20260903074419 | 0 | 0.0 | 0.0 | 0.00 | 0.00 | 0.00 | 1011.0 | ||
| 20260903073825 | 0 | 0.0 | 0.0 | 0.00 | 0.00 | 0.00 | 1010.9 | ||
| 20260903073325 | 0 | 0.0 | 0.0 | 0.00 | 0.00 | 0.00 | 1011.0 | ||
| 20260903072725 | 0 | 0.0 | 0.0 | 0.00 | 0.00 | 0.00 | 1011.0 | ||
| 20260903072223 | 70 | 0.0 | 0.0 | 0.00 | 0.00 | 0.00 | 95 | 1010.9 | |
| 20260903071722 | 70 | 0 | 0.0 | 0.0 | 0.00 | 0.00 | 0.00 | 95 | 1011.1 |
| 20260903071123 | 70 | 0 | 0.0 | 0.0 | 0.00 | 0.00 | 0.00 | 95 | 1011.1 |
| 20260903070604 | 70 | 0 | 0.0 | 5.0 | 0.00 | 0.00 | 0.00 | 95 | 1011.2 |
| 20260903070059 | 70 | 0 | 0.0 | 5.0 | 0.00 | 0.00 | 0.00 | 96 | 1011.2 |
| 20260903065558 | 70 | 213 | 1.0 | 7.0 | 0.00 | 0.00 | 0.00 | 95 | 1011.2 |
| 20260903065052 | 70 | 205 | 2.0 | 7.0 | 0.00 | 0.00 | 0.00 | 95 | 1011.1 |
| 20260903064546 | 70 | 209 | 2.0 | 8.0 | 0.00 | 0.00 | 0.00 | 95 | 1011.1 |
| 20260903064040 | 70 | 236 | 2.0 | 8.0 | 0.00 | 0.00 | 0.00 | 95 | 1011.2 |
| 20260903063534 | 70 | 200 | 1.0 | 6.0 | 0.00 | 0.00 | 0.00 | 95 | 1011.1 |
| 20260903062522 | 70 | 228 | 1.0 | 6.0 | 0.00 | 0.00 | 0.00 | 95 | 1011.2 |
| 20260903062016 | 70 | 219 | 2.0 | 9.0 | 0.00 | 0.00 | 0.00 | 95 | 1011.0 |
| 20260903061510 | 70 | 191 | 2.0 | 10.0 | 0.00 | 0.00 | 0.00 | 95 | 1011.0 |
| 20260903060459 | 70 | 155 | 2.0 | 7.0 | 0.00 | 0.00 | 0.00 | 95 | 1011.2 |
| 20260903055952 | 70 | 227 | 3.0 | 9.0 | 0.00 | 0.00 | 0.00 | 95 | 1011.1 |
| 20260903054939 | 70 | 184 | 3.0 | 8.0 | 0.00 | 0.00 | 0.00 | 95 | 1010.9 |
| 20260903054433 | 70 | 209 | 3.0 | 9.0 | 0.00 | 0.00 | 0.00 | 95 | 1010.8 |
| 20260903053926 | 70 | 223 | 4.0 | 9.0 | 0.00 | 0.00 | 0.00 | 95 | 1010.9 |
| 20260903053421 | 70 | 204 | 4.0 | 8.0 | 0.00 | 0.00 | 0.00 | 95 | 1010.9 |
| 20260903052914 | 70 | 215 | 5.0 | 8.0 | 0.00 | 0.00 | 0.00 | 95 | 1010.9 |
| 20260903052408 | 70 | 227 | 4.0 | 8.0 | 0.00 | 0.00 | 0.00 | 96 | 1010.8 |
| 20260903051356 | 70 | 195 | 0.0 | 5.0 | 0.00 | 0.00 | 0.00 | 95 | 1010.7 |
| 20260903050850 | 70 | 213 | 0.0 | 5.0 | 0.00 | 0.00 | 0.00 | 95 | 1010.8 |
| 20260903050346 | 70 | 182 | 0.0 | 3.0 | 0.00 | 0.00 | 0.00 | 95 | 1010.7 |
| 20260903045838 | 70 | 271 | 0.0 | 7.0 | 0.00 | 0.00 | 0.00 | 95 | 1010.8 |
| 20260903045333 | 70 | 220 | 0.0 | 7.0 | 0.00 | 0.00 | 0.00 | 95 | 1010.7 |
| 20260903044320 | 70 | 153 | 3.0 | 9.0 | 0.00 | 0.00 | 0.00 | 95 | 1010.9 |
| 20260903043814 | 70 | 221 | 3.0 | 11.0 | 0.00 | 0.00 | 0.00 | 96 | 1010.8 |
| 20260903043308 | 70 | 205 | 4.0 | 11.0 | 0.00 | 0.00 | 0.00 | 96 | 1010.9 |
| 20260903042803 | 70 | 250 | 5.0 | 13.0 | 0.00 | 0.00 | 0.00 | 96 | 1010.9 |
| 20260903042256 | 70 | 223 | 5.0 | 13.0 | 0.00 | 0.00 | 0.00 | 96 | 1010.9 |
| 20260903041751 | 70 | 210 | 4.0 | 11.0 | 0.00 | 0.00 | 0.00 | 96 | 1011.0 |
| 20260903041244 | 71 | 198 | 4.0 | 12.0 | 0.00 | 0.00 | 0.00 | 96 | 1011.1 |
| 20260903040737 | 71 | 0 | 5.0 | 12.0 | 0.00 | 0.00 | 0.00 | 96 | 1011.1 |
| 20260903040239 | 71 | 188 | 5.0 | 15.0 | 0.00 | 0.00 | 0.00 | 96 | 1011.0 |
| 20260903035739 | 71 | 186 | 6.0 | 15.0 | 0.00 | 0.00 | 0.00 | 96 | 1010.9 |
| 20260903035236 | 71 | 205 | 6.0 | 15.0 | 0.00 | 0.00 | 0.00 | 96 | 1010.8 |
| 20260903034736 | 71 | 258 | 5.0 | 15.0 | 0.00 | 0.00 | 0.00 | 96 | 1010.8 |
| 20260903033735 | 71 | 212 | 5.0 | 12.0 | 0.00 | 0.00 | 0.00 | 96 | 1010.9 |
| 20260903033234 | 71 | 201 | 4.0 | 12.0 | 0.00 | 0.00 | 0.00 | 96 | 1010.9 |
| 20260903032736 | 71 | 182 | 4.0 | 9.0 | 0.00 | 0.00 | 0.00 | 95 | 1010.9 |
| 20260903032234 | 71 | 162 | 4.0 | 9.0 | 0.00 | 0.00 | 0.00 | 95 | 1010.9 |
| 20260903031734 | 71 | 207 | 3.0 | 8.0 | 0.00 | 0.00 | 0.00 | 95 | 1011.0 |
| 20260903031234 | 72 | 156 | 3.0 | 9.0 | 0.00 | 0.00 | 0.00 | 96 | 1010.9 |
| 20260903030234 | 72 | 198 | 0.0 | 4.0 | 0.00 | 0.00 | 0.00 | 95 | 1011.0 |
| 20260903025735 | 72 | 205 | 0.0 | 3.0 | 0.00 | 0.00 | 0.00 | 95 | 1011.0 |
| 20260903025234 | 72 | 247 | 1.0 | 7.0 | 0.00 | 0.00 | 0.00 | 95 | 1010.9 |
| 20260903024733 | 72 | 230 | 1.0 | 7.0 | 0.00 | 0.00 | 0.00 | 95 | 1010.8 |
| 20260903024230 | 72 | 230 | 1.0 | 6.0 | 0.00 | 0.00 | 0.00 | 95 | 1010.8 |
| 20260903022212 | 71 | 350 | 0.0 | 0.0 | 0.00 | 0.00 | 0.00 | 95 | 1011.1 |
| 20260903020654 | 71 | 350 | 0.0 | 6.0 | 0.00 | 0.00 | 0.00 | 94 | 1010.8 |
| 20260903020149 | 71 | 350 | 1.0 | 6.0 | 0.00 | 0.00 | 0.00 | 94 | 1010.9 |
| 20260903015137 | 72 | 153 | 3.0 | 11.0 | 0.00 | 0.00 | 0.00 | 94 | 1010.9 |
| 20260903014630 | 72 | 170 | 3.0 | 11.0 | 0.00 | 0.00 | 0.00 | 93 | 1010.7 |
| 20260903014130 | 72 | 217 | 3.0 | 11.0 | 0.00 | 0.00 | 0.00 | 93 | 1010.7 |
| 20260903013631 | 72 | 182 | 0.0 | 6.0 | 0.00 | 0.00 | 0.00 | 92 | 1010.4 |
| 20260903013131 | 72 | 171 | 1.0 | 5.0 | 0.00 | 0.00 | 0.00 | 92 | 1010.4 |
| 20260903012630 | 72 | 169 | 4.0 | 9.0 | 0.00 | 0.00 | 0.00 | 92 | 1010.2 |
| 20260903011128 | 73 | 192 | 9.0 | 18.0 | 0.00 | 0.00 | 0.00 | 90 | 1009.9 |
| 20260903010628 | 73 | 153 | 9.0 | 15.0 | 0.00 | 0.00 | 0.00 | 90 | 1010.2 |
| 20260903005628 | 73 | 171 | 10.0 | 16.0 | 0.00 | 0.00 | 0.00 | 90 | 1010.5 |
| 20260903005127 | 74 | 169 | 10.0 | 16.0 | 0.00 | 0.00 | 0.00 | 90 | 1010.6 |
| 20260903004627 | 74 | 141 | 9.0 | 16.0 | 0.00 | 0.00 | 0.00 | 90 | 1010.6 |
| 20260903004125 | 74 | 169 | 7.0 | 12.0 | 0.00 | 0.00 | 0.00 | 90 | 1010.8 |
| 20260903003625 | 74 | 162 | 7.0 | 11.0 | 0.00 | 0.00 | 0.00 | 90 | 1010.9 |
| 20260903003125 | 74 | 159 | 9.0 | 15.0 | 0.00 | 0.00 | 0.00 | 90 | 1010.8 |
| 20260903002622 | 74 | 152 | 10.0 | 15.0 | 0.00 | 0.00 | 0.00 | 89 | 1010.7 |
| 20260903002123 | 74 | 165 | 11.0 | 16.0 | 0.00 | 0.00 | 0.00 | 89 | 1010.7 |
| 20260903001622 | 74 | 161 | 11.0 | 17.0 | 0.00 | 0.00 | 0.00 | 89 | 1010.8 |
| 20260903001123 | 74 | 169 | 11.0 | 17.0 | 0.00 | 0.00 | 0.00 | 89 | 1010.7 |
| 20260903000623 | 74 | 161 | 12.0 | 19.0 | 0.00 | 0.00 | 0.00 | 89 | 1010.6 |
| 20260903000122 | 74 | 142 | 13.0 | 19.0 | 0.00 | 0.00 | 0.00 | 89 | 1010.4 |
| 20260902234616 | 74 | 157 | 7.0 | 11.0 | 0.00 | 0.00 | 0.00 | 92 | 1010.8 |
| 20260902234110 | 74 | 157 | 6.0 | 10.0 | 0.00 | 0.00 | 0.00 | 92 | 1010.9 |
| 20260902232556 | 74 | 160 | 4.0 | 6.0 | 0.00 | 0.00 | 0.00 | 91 | 1010.9 |
| 20260902231538 | 75 | 172 | 3.0 | 6.0 | 0.00 | 0.00 | 0.00 | 89 | 1011.0 |
| 20260902231030 | 75 | 0 | 2.0 | 5.0 | 0.00 | 0.00 | 0.00 | 88 | 1010.9 |
| 20260902230524 | 75 | 165 | 1.0 | 5.0 | 0.00 | 0.00 | 0.00 | 87 | 1011.0 |
| 20260902230018 | 76 | 166 | 0.0 | 4.0 | 0.00 | 0.00 | 0.00 | 86 | 1010.9 |
| 20260902225006 | 76 | 177 | 0.0 | 1.0 | 0.00 | 0.00 | 0.00 | 86 | 1010.9 |
| 20260902224500 | 76 | 155 | 0.0 | 1.0 | 0.00 | 0.00 | 0.00 | 86 | 1011.0 |
| 20260902223955 | 75 | 155 | 0.0 | 0.0 | 0.00 | 0.00 | 0.00 | 86 | 1011.0 |
| 20260902223448 | 75 | 151 | 0.0 | 0.0 | 0.00 | 0.00 | 0.00 | 87 | 1010.7 |
| 20260902222943 | 75 | 200 | 0.0 | 0.0 | 0.00 | 0.00 | 0.00 | 87 | 1010.7 |
| 20260902222436 | 75 | 200 | 0.0 | 0.0 | 0.00 | 0.00 | 0.00 | 88 | 1010.7 |
| 20260902221931 | 75 | 217 | 0.0 | 0.0 | 0.00 | 0.00 | 0.00 | 88 | 1010.8 |
| 20260902221424 | 75 | 218 | 0.0 | 3.0 | 0.00 | 0.00 | 0.00 | 88 | 1010.8 |
| 20260902214908 | 76 | 173 | 0.0 | 3.0 | 0.00 | 0.00 | 0.00 | 84 | 1011.2 |
| 20260902214410 | 76 | 174 | 0.0 | 3.0 | 0.00 | 0.00 | 0.00 | 83 | 1011.6 |
| 20260902213906 | 76 | 192 | 1.0 | 3.0 | 0.00 | 0.00 | 0.00 | 83 | 1011.8 |
| 20260902212902 | 76 | 196 | 1.0 | 5.0 | 0.00 | 0.00 | 0.00 | 84 | 1011.9 |
| 20260902211904 | 76 | 217 | 3.0 | 6.0 | 0.00 | 0.00 | 0.00 | 84 | 1012.0 |
| 20260902210902 | 77 | 165 | 5.0 | 12.0 | 0.00 | 0.00 | 0.00 | 83 | 1012.0 |
| 20260902210402 | 77 | 170 | 5.0 | 12.0 | 0.00 | 0.00 | 0.00 | 80 | 1012.1 |
| 20260902205902 | 77 | 228 | 4.0 | 12.0 | 0.00 | 0.00 | 0.00 | 79 | 1012.4 |
| 20260902204902 | 78 | 224 | 4.0 | 12.0 | 0.00 | 0.00 | 0.00 | 80 | 1013.1 |
| 20260902204402 | 78 | 252 | 3.0 | 12.0 | 0.00 | 0.00 | 0.00 | 80 | 1013.4 |
| 20260902203902 | 78 | 200 | 3.0 | 10.0 | 0.00 | 0.00 | 0.00 | 80 | 1013.2 |
| 20260902203402 | 78 | 214 | 4.0 | 13.0 | 0.00 | 0.00 | 0.00 | 80 | 1013.1 |
| 20260902202900 | 77 | 223 | 4.0 | 13.0 | 0.00 | 0.00 | 0.00 | 80 | 1012.9 |
| 20260902202400 | 77 | 225 | 5.0 | 14.0 | 0.00 | 0.00 | 0.00 | 81 | 1012.8 |
| 20260902201858 | 77 | 0 | 5.0 | 14.0 | 0.00 | 0.00 | 0.00 | 82 | 1012.7 |
| 20260902201359 | 77 | 144 | 5.0 | 10.0 | 0.00 | 0.00 | 0.00 | 82 | 1012.6 |
| 20260902200858 | 77 | 148 | 5.0 | 9.0 | 0.00 | 0.00 | 0.00 | 83 | 1012.7 |
| 20260902200358 | 77 | 186 | 6.0 | 9.0 | 0.00 | 0.00 | 0.00 | 82 | 1012.5 |
| 20260902195859 | 77 | 148 | 4.0 | 9.0 | 0.00 | 0.00 | 0.00 | 81 | 1012.5 |
| 20260902194858 | 78 | 164 | 3.0 | 9.0 | 0.00 | 0.00 | 0.00 | 79 | 1013.2 |
| 20260902194359 | 77 | 224 | 2.0 | 8.0 | 0.00 | 0.00 | 0.00 | 80 | 1013.4 |
| 20260902193858 | 77 | 211 | 2.0 | 7.0 | 0.00 | 0.00 | 0.00 | 81 | 1013.4 |
| 20260902193358 | 77 | 169 | 4.0 | 9.0 | 0.00 | 0.00 | 0.00 | 82 | 1013.4 |
| 20260902192858 | 77 | 153 | 4.0 | 9.0 | 0.00 | 0.00 | 0.00 | 81 | 1013.3 |
| 20260902192359 | 78 | 175 | 5.0 | 10.0 | 0.00 | 0.00 | 0.00 | 80 | 1013.3 |
| 20260902191858 | 78 | 212 | 5.0 | 10.0 | 0.00 | 0.00 | 0.00 | 79 | 1013.4 |
| 20260902191358 | 78 | 166 | 5.0 | 10.0 | 0.00 | 0.00 | 0.00 | 78 | 1013.4 |
| 20260902190858 | 78 | 185 | 5.0 | 9.0 | 0.00 | 0.00 | 0.00 | 78 | 1013.4 |
| 20260902190358 | 78 | 143 | 5.0 | 10.0 | 0.00 | 0.00 | 0.00 | 79 | 1013.5 |
| 20260902185900 | 77 | 192 | 7.0 | 10.0 | 0.00 | 0.00 | 0.00 | 79 | 1013.5 |
| 20260902185354 | 77 | 0 | 6.0 | 10.0 | 0.00 | 0.00 | 0.00 | 80 | 1013.4 |
| 20260902184854 | 77 | 225 | 6.0 | 10.0 | 0.00 | 0.00 | 0.00 | 83 | 1013.4 |
| 20260902184354 | 78 | 161 | 7.0 | 11.0 | 0.00 | 0.00 | 0.00 | 83 | 1013.4 |
| 20260902183857 | 78 | 173 | 8.0 | 11.0 | 0.00 | 0.00 | 0.00 | 81 | 1013.3 |
| 20260902183354 | 78 | 173 | 6.0 | 11.0 | 0.00 | 0.00 | 0.00 | 82 | 1013.3 |
| 20260902182854 | 78 | 171 | 5.0 | 9.0 | 0.00 | 0.00 | 0.00 | 84 | 1013.4 |
| 20260902181854 | 77 | 161 | 7.0 | 11.0 | 0.00 | 0.00 | 0.00 | 85 | 1013.5 |
| 20260902180854 | 76 | 159 | 6.0 | 12.0 | 0.00 | 0.00 | 0.00 | 87 | 1013.4 |
| 20260902174853 | 76 | 0 | 5.0 | 8.0 | 0.00 | 0.00 | 0.00 | 86 | 1013.7 |